Location: Ebenezer
(18.2167°N, 63.0667°W)
Time: 20:46:53
(UTC+00:00)

CZ-4 R/B - Pass Details

Date: 26 January 2020
Orbit: 580 x 589 km, 97.8° (Epoch: 23 February)

Event Time Altitude Azimuth Distance (km) Brightness Sun altitude
Rises 22:45:52 0° 168° (SSE) 2,796 8.0 -10.5°
Reaches altitude 10° 22:48:01 10° 169° (SSE) 1,896 7.1 -11.0°
Maximum altitude 22:52:08 88° 252° (WSW) 586 4.4 -11.9°
Drops below altitude 10° 22:56:15 10° 348° (NNW) 1,896 7.0 -12.9°
Sets 22:58:24 0° 349° (NNW) 2,795 7.9 -13.4°
